STARLINK-30264 (57534 NORAD) Tracking and Keplerian Element Data

This shows tracking and keplerian element data for the satellite.

Feedback or suggestion? Click here.




ElementValue
Catalog57534
NameSTARLINK-30264
Epoch Orbit423
Epoch Day239.16667824
Epoch Year2023
RAAN359.5838
Inclination42.9995
Eccentricity0.0001794
Argument of Perigee251.7282
Mean Anonmoly109.6343
Mean Motion15.54848104
Decay Rate-0.01619922
L11 57534U 23115P 23239.16667824 -.01619922 00000+0 -26300-1 0 9998
L22 57534 42.9995 359.5838 0001794 251.7282 109.6343 15.54848104 4238



Live tracking and technical data element details for STARLINK-30264 (NORAD 57534). STARLINK-30264 can be tracked NOW for your location showing map with azimuth and elevation plus other details from your city location.







IsCatalogInMostPopularTable: catalog: 57534, numindb: 5
Update: records affected: 1



GetName: 57534 STARLINK-30264

Hit Count: updated at: Tue, 26 Sep 2023 12:20:19 GMT